Weather History for KCDR - October, 2014

Change the Weather History Date:

Wednesday, October 29, 2014

  Actual Average Record
Temperature  
Mean Temperature 43 °F 42 °F  
Max Temperature 68 °F 58 °F 88 °F (1968)
Min Temperature 18 °F 27 °F -7 °F (1991)
Degree Days  
Heating Degree Days 22 23  
Month to date heating degree days 369 496  
Since 1 July heating degree days 533 707  
Cooling Degree Days 0 0  
Month to date cooling degree days 0 0  
Year to date cooling degree days 647 710  
Moisture  
Dew Point 23 °F    
Average Humidity 57    
Maximum Humidity 91    
Minimum Humidity 22    
Precipitation  
Precipitation T in 0.03 in 1.01 in (1948)
Month to date precipitation 0.37 1.25  
Year to date precipitation 18.59 16.85  
Sea Level Pressure  
Sea Level Pressure 30.15 in    
Wind  
Wind Speed 6 mph (West)    
Max Wind Speed 23 mph    
Max Gust Speed 31 mph    
Visibility 10 miles    
Events      
T = Trace of Precipitation, MM = Missing Value Source: NWS Daily Summary

Daily Weather History Graph

Daily Weather History Graph

Search for Another Location

Airport or City:

Trip Planner

Search our weather history database for the weather conditions in past years. The results will help you decide how hot, cold, wet, or windy it might be!

Date:

Astronomy

Oct. 29, 2014 Rise Set
Actual Time 7:22 AM MDT 5:48 PM MDT
Civil Twilight 6:53 AM MDT 6:17 PM MDT
Nautical Twilight 6:20 AM MDT 6:51 PM MDT
Astronomical Twilight 5:47 AM MDT 7:24 PM MDT
Moon 12:45 PM MDT (10/29) 10:59 PM MDT (10/29)
Length of Visible Light 11h 24m
Length of Day
10h 25m
Waxing Crescent, 35% of the Moon is Illuminated
Oct 29
Waxing Crescent
Oct 30
First Quarter
Nov 6
Full
Nov 14
Last Quarter
Nov 22
New

Hourly Weather History & Observations

Time (MDT) Temp. Windchill Dew Point Humidity Pressure Visibility Wind Dir Wind Speed Gust Speed Precip Events Conditions
12:53 AM 21.0 °F 14.6 °F 17.1 °F 85% 30.25 in 10.0 mi West 4.6 mph - N/A   Clear
1:53 AM 21.9 °F - 17.1 °F 82% 30.23 in 10.0 mi Calm Calm - N/A   Clear
2:53 AM 19.9 °F 14.9 °F 17.1 °F 89% 30.22 in 10.0 mi SSW 3.5 mph - N/A   Clear
3:53 AM 19.0 °F 13.9 °F 16.0 °F 88% 30.21 in 10.0 mi SW 3.5 mph - N/A   Clear
4:53 AM 19.0 °F 13.9 °F 15.1 °F 85% 30.19 in 10.0 mi West 3.5 mph - N/A   Clear
5:53 AM 19.9 °F 14.9 °F 15.1 °F 81% 30.20 in 10.0 mi West 3.5 mph - N/A   Clear
6:53 AM 19.9 °F - 15.1 °F 81% 30.21 in 10.0 mi Calm Calm - N/A   Clear
7:53 AM 23.0 °F 13.9 °F 19.0 °F 85% 30.20 in 10.0 mi WSW 8.1 mph - N/A   Clear
8:53 AM 33.1 °F 30.0 °F 26.1 °F 75% 30.19 in 10.0 mi WSW 3.5 mph - N/A   Clear
9:53 AM 43.0 °F 39.5 °F 28.0 °F 56% 30.16 in 10.0 mi WSW 5.8 mph - N/A   Clear
10:53 AM 53.1 °F - 26.1 °F 35% 30.12 in 10.0 mi WSW 5.8 mph - N/A   Clear
11:53 AM 57.9 °F - 23.0 °F 26% 30.08 in 10.0 mi Calm Calm - N/A   Clear
12:53 PM 64.0 °F - 26.1 °F 24% 30.03 in 10.0 mi Calm Calm - N/A   Clear
1:53 PM 66.0 °F - 27.0 °F 23% 30.01 in 10.0 mi Variable 5.8 mph - N/A   Scattered Clouds
2:53 PM 64.9 °F - 25.0 °F 22% 30.01 in 10.0 mi NW 15.0 mph - N/A   Clear
3:53 PM 64.9 °F - 25.0 °F 22% 30.03 in 10.0 mi NW 16.1 mph 24.2 mph N/A   Clear
4:53 PM 61.0 °F - 26.1 °F 26% 30.07 in 10.0 mi NW 12.7 mph 24.2 mph N/A   Clear
5:53 PM 55.9 °F - 26.1 °F 32% 30.10 in 10.0 mi North 10.4 mph - N/A   Scattered Clouds
6:53 PM 51.1 °F - 27.0 °F 39% 30.14 in 10.0 mi Calm Calm - N/A   Scattered Clouds
7:53 PM 37.9 °F 33.5 °F 27.0 °F 65% 30.18 in 10.0 mi SSW 5.8 mph - N/A   Partly Cloudy
8:53 PM 41.0 °F 39.0 °F 28.0 °F 60% 30.18 in 10.0 mi WNW 3.5 mph - N/A   Mostly Cloudy
9:53 PM 42.1 °F 40.2 °F 28.9 °F 60% 30.18 in 10.0 mi NNE 3.5 mph - 0.00 in   Mostly Cloudy
10:53 PM 41.0 °F 33.9 °F 30.0 °F 65% 30.16 in 10.0 mi SW 12.7 mph - N/A   Mostly Cloudy
11:53 PM 37.9 °F 30.9 °F 28.0 °F 68% 30.17 in 10.0 mi WSW 10.4 mph - N/A   Mostly Cloudy